Location: Naloco
(16.5478°S, 37.1017°E)
Time: 02:41:59
(UTC+00:00)

Cosmos 2263 - Pass Details

Date: 13 August 2020
Orbit: 829 x 867 km, 70.9° (Epoch: 23 September)

Event Time Altitude Azimuth Distance (km) Brightness Sun altitude
Rises 15:55:40 0° 349° (N) 3,420 7.7 -8.6°
Reaches altitude 10° 15:58:08 10° 352° (N) 2,484 6.9 -9.1°
Maximum altitude 16:03:49 70° 74° (ENE) 906 4.2 -10.5°
Drops below altitude 10° 16:09:29 10° 157° (SSE) 2,482 6.3 -11.8°
Sets 16:11:57 0° 159° (SSE) 3,416 7.0 -12.4°
